Location: Kalamazoo
(42.2920°N, 85.5870°W)
Time: 12:08:44
(UTC-04:00)

Daily predictions for brighter satellites

Satellite Brightness Start Highest point End
(mag) Time Altitude Azimuth Time Altitude Azimuth Time Altitude Azimuth
DEBRIS 2.9 21:36:00 10° WNW 21:43:04 88° NE 21:45:38 10° ESE
Cosmos 1726 Rocket 4.0 21:39:05 10° NNW 21:43:31 67° W 21:47:53 10° S
Cosmos 2278 Rocket 3.9 21:39:01 10° NW 21:43:57 31° WSW 21:48:52 10° SSW
Cosmos 1461 3.1 21:41:07 10° NNW 21:45:24 63° NE 21:49:28 10° SE
ATLAS 3B R/B 4.0 21:44:42 10° SSE 21:50:15 22° ESE 21:55:46 10° ENE
SJ-11-01 4.3 21:46:12 10° SSE 21:50:51 82° ENE 21:55:33 10° N
Tsikada Rocket 4.4 21:46:24 10° SSE 21:52:29 48° E 21:58:33 10° NNE
Cosmos 2369 Rocket 3.5 21:52:02 10° N 21:56:46 26° NE 22:01:26 10° ESE
Cosmos 2058 Rocket 3.7 21:55:37 10° NNW 21:59:55 57° W 22:04:11 10° S
Cosmos 1666 2.8 21:57:07 10° N 22:01:02 87° W 22:04:56 10° S
APEX 3.9 21:57:09 10° NNW 22:01:14 71° WSW 22:06:34 10° SSE
Cosmos 2285 Rocket 4.4 21:55:53 10° NNW 22:02:08 64° WSW 22:08:23 10° S
Abrixas rocket 3.3 22:00:15 10° WNW 22:03:25 35° SW 22:06:15 12° SSE
Cosmos 1602 Rocket 3.6 21:59:39 10° S 22:04:05 65° E 22:08:31 10° NNE
ERS-1 Rocket 3.3 21:59:08 10° S 22:04:07 68° WSW 22:09:08 10° NNW
SL-16 R/B 3.1 21:59:33 10° SW 22:05:04 53° WNW 22:10:37 10° NNE
Atlas Centaur 2 3.7 21:59:05 10° SW 22:05:25 30° SSE 22:12:27 10° ESE
Meteor 1-15 Rocket 4.4 22:00:15 10° NNW 22:05:51 80° W 22:11:30 10° S
USA 234 3.7 22:01:35 10° ESE 22:07:58 57° NNE 22:14:23 10° NW
Cosmos 1464 Rocket 4.3 22:04:27 10° NNW 22:10:34 69° W 22:16:40 10° S
Envisat 3.0 22:05:54 10° SSE 22:10:56 74° ENE 22:16:02 10° N
MetOp-B 4.5 22:06:59 11° SE 22:11:55 51° ENE 22:17:07 10° N
Cosmos 1812 Rocket 3.7 22:09:56 10° N 22:14:17 59° E 22:18:12 13° SSE
ISS -2.9 22:12:23 10° SSW 22:15:26 38° SE 22:18:30 10° ENE
deb Chang Zheng 4 4.1 22:11:06 10° N 22:15:29 64° WNW 22:19:47 10° SSW
PSLV R/B 3.6 22:16:13 10° WSW 22:19:39 50° SSE 22:22:59 11° E
Cosmos 1939 Rocket 3.3 22:17:09 10° S 22:21:17 66° W 22:25:25 10° NNW
GRACE-1 3.9 22:19:04 10° N 22:21:57 88° W 22:24:30 12° S
GRACE-2 3.9 22:19:30 10° N 22:22:23 88° W 22:24:56 12° S
H-2A R/B 3.2 22:23:41 10° S 22:27:42 41° W 22:31:50 10° NNW
SPOT 5 2.6 22:24:58 12° SSE 22:29:02 85° W 22:33:23 10° NNW
Lacrosse 5 rocket 4.1 22:26:18 10° WNW 22:29:18 20° NNW 22:32:26 10° NNE
Cosmos 2034 Rocket 4.4 22:23:31 10° NNW 22:29:50 66° W 22:36:05 10° S
Cosmos 1634 Rocket 4.3 22:24:12 10° N 22:30:11 48° ENE 22:34:40 18° SE
COSMOS 2455 2.8 22:24:52 10° SSW 22:30:49 70° ESE 22:36:49 10° NE
Cosmos 1515 3.8 22:28:51 15° S 22:31:56 55° E 22:35:43 10° NNE
USA 245 4.4 22:28:23 16° SSE 22:33:09 59° ENE 22:38:12 10° N
Cosmos 1603 3.8 22:28:28 10° SSW 22:34:04 78° WNW 22:39:43 10° NNE
USA 81 4.3 22:28:54 10° N 22:34:04 51° E 22:37:42 19° SSE
CZ-4 SHROUD 3.8 22:31:44 14° S 22:34:19 54° W 22:37:26 10° NNW
BREEZE-M DEB (TANK) 3.8 22:32:54 10° W 22:34:35 17° SW 22:35:26 14° SSW
Cosmos 1626 Rocket 4.3 22:32:23 10° SSW 22:36:45 56° W 22:41:06 10° N
YAOGAN 6 2.6 22:39:45 23° SSE 22:41:56 70° ENE 22:45:41 10° N
Meteor 2-12 Rocket 4.4 22:38:19 10° N 22:44:27 89° W 22:49:33 15° S
Terra 3.2 22:43:53 18° ESE 22:46:13 26° ENE 22:50:08 10° N
Cosmos 1992 Rocket 4.0 22:41:54 10° NNW 22:47:10 80° ENE 22:50:30 23° SSE
Cosmos 1346 Rocket 3.2 22:48:52 28° SE 22:50:23 42° E 22:54:07 10° NNE
Cosmos 1953 Rocket 3.7 22:52:36 25° SSE 22:54:53 53° E 22:59:13 10° NNE
Cosmos 1943 3.1 22:51:54 10° SSW 22:57:31 70° ESE 23:03:12 10° NNE
H-2A R/B 2.7 22:57:40 24° ESE 22:59:59 38° ENE 23:04:39 10° N
Cosmos 2346 Rocket 4.4 22:56:16 14° S 23:01:44 82° E 23:07:54 10° N
Cosmos 1943 Rocket 3.2 22:56:52 10° N 23:01:52 33° ENE 23:04:49 20° ESE
Geosat 4.2 22:58:53 10° NE 23:03:47 49° ESE 23:06:36 24° S
Cosmos 1842 4.3 23:04:02 28° ESE 23:04:25 28° E 23:07:49 10° NNE
Lacrosse 4 Rocket 1.5 23:03:03 32° SSE 23:04:32 49° ESE 23:08:29 10° NE
SAR-Lupe-2 4.4 23:05:25 32° ESE 23:06:12 36° ENE 23:09:32 10° N
SeaSat 1 3.4 23:04:20 18° S 23:07:37 41° WSW 23:12:17 10° NW
Cosmos 1190 Rocket 3.9 23:03:10 14° S 23:07:45 76° ESE 23:13:05 10° NNE
SPOT 1/Viking Rocket 3.7 23:05:20 22° S 23:08:42 69° WSW 23:13:51 10° NNW
Cosmos-2242 4.0 23:06:28 10° N 23:10:29 34° ENE 23:11:38 29° ESE
CZ-4B R/B 4.1 23:11:16 10° N 23:16:14 56° WNW 23:21:18 10° SSW
Cosmos 676 Rocket 4.0 23:21:48 30° S 23:24:23 63° ESE 23:29:40 10° NNE
DMSP B5D2-2 4.4 23:19:26 10° NNE 23:24:34 49° E 23:26:12 36° SSE
DELTA 2 DEB (DPAF) 4.2 23:22:59 36° S 23:24:47 78° WSW 23:29:18 10° NNW
Cosmos 1766 3.2 23:21:33 10° N 23:25:35 77° E 23:26:30 51° SSE
Cosmos 1758 Rocket 3.6 23:27:03 32° SSW 23:29:01 80° W 23:33:24 10° N
Cosmos 1140 Rocket 4.2 23:28:55 33° ESE 23:29:32 34° E 23:34:14 10° NE
CARTOSAT-1 3.5 23:31:25 48° SSE 23:32:33 76° ENE 23:36:53 10° N
ARGOS 3.8 23:33:16 24° SSW 23:36:16 50° W 23:41:33 10° NNW
ATLAS 3B R/B 3.0 23:32:31 10° SW 23:40:15 83° NW 23:47:49 10° NE
Cosmos 2369 Rocket 2.7 23:35:36 10° NW 23:41:03 50° WSW 23:43:28 30° SSW
CZ-4C R/B 4.4 23:46:15 32° SW 23:47:33 41° W 23:51:26 10° NNW
USA 234 3.7 23:48:30 33° S 23:51:02 47° SW 23:57:20 10° WNW
ISS -1.4 23:48:56 10° W 23:51:55 32° NNW 23:54:54 10° NE
Cosmos 1470 4.2 23:50:43 10° NNE 23:53:49 26° ENE 23:53:49 26° ENE
SL-27 R/B 3.0 23:54:51 48° NE 23:54:51 48° NE 23:57:25 10° NNE
